User: anonymous   Login
Location: Radomski Observatory
(40.2854°N, 79.5145°W)
Time: 13:27:09
(UTC-05:00)
Language:

Cosmos 1072 Rocket - Orbit

View from above orbital plane
View from above orbital plane
View from above satellite
View from above satellite

Ground track
Ground track

The orbit data is extracted from the following two-line orbital elements,

1 11239U 79003B   17328.16143604 -.00000043 +00000-0 -59900-4 0  9997
2 11239 082.9358 329.8238 0039618 307.2890 121.9395 13.75813779949591
Epoch (UTC): 24 November 2017 03:52:28
Eccentricity: 0.0039618
inclination: 82.9358°
perigee height: 949 km
apogee height: 1008 km
right ascension of ascending node: 329.8238°
argument of perigee: 307.2890°
revolutions per day: 13.75813779
mean anomaly at epoch: 121.9395°
orbit number at epoch: 94959

The dashed part of the orbit path shows where the satellite is in the earth's shadow,  

DLR